Sioux Lookout Airport
CYXL : now visible

Airfield :











YOU CAN JOIN US ON...

 
LOGIN :

Register | Disclaimer

   EN    FR    IT 

 









Legend :    VFR   Marginal VFR   IFR   Intensive IFR   Very Intensive IFR
Visi :
Ceiling :
>= 8 km
>= 3000ft
5 to 8 km
1000 to 3000 ft
1500m to 5 km
500 to 1000 ft
800 to 1500m
200 to 500 ft
< 800m
< 200 ft
Symbols :   Thunderstorms  Fog  Heavy snow  Heavy precipitations  Wind > 20 kt






- Airport Elevation : 1258 ft
- IATA code : YXL


CYXL - Sioux Lookout

CURRENT METAR :
  • 050800Z 16005KT 15SM BKN200 M15/M17 A3001 RMK CI6 SLP203

EXPIRED METARs :
  • 050700Z 17007KT 15SM BKN210 M15/M16 A3003 RMK CI6 SLP209
  • 050600Z 19004KT 15SM SCT210 M15/M16 A3006 RMK CI4 SLP219

TAF TAF CYXL
Valid from the 05 at 08:00 until the 05 at 20:00 UTC


050740Z 0508/0520 17008KT P6SM BKN210
FM051900 10008KT P6SM SCT030 OVC080
TEMPO 0519/0520 3SM -SN RMK NXT FCST BY 051400Z
CZWG FIR / North America



MET'MAP, your aeronautical weather chart ! - Copyright ORBIFLY December 2007 - Disclaimer

ORBIFLY MET'MAP TEAM :

Programming & Development : Alexandra Zaïnal
Concept & original design : Baudouin d'Aumeries
Assistance for programming : Marc-Olivier Méhu
Technical & hardware support : Manuel Goepfert

Contact : metmap@orbifly.com




SOURCES & CREDITS :

   NOAA       Earth
Advisory